Temperature
30 32 32 32 32 33 32 32 32 33 33 33 33 33 32 32 31 31 30 29 28 28 27 26 25 25 24 24 23 23 22 21 21 21 20 20 20 20 20 19 19 19 18 18
29 30 31 32 32 33 33 33 33 33 32 33 33 32 31 31 30 30 29 28 28 27 26 25 25 25 24 24 23 23 22 21 21 21 20 20 19 19 19 19 19 19 18 18
27 29 30 30 31 32 32 33 33 32 33 33 32 31 31 30 29 29 28 28 27 26 26 25 25 24 24 23 23 22 22 21 21 21 20 20 19 19 19 19 19 18 18 18
26 27 27 30 33 33 32 33 33 33 32 32 31 30 29 29 28 28 27 27 26 26 25 24 24 24 23 23 22 22 21 21 21 20 20 19 19 19 19 18 18 18 18 17
26 26 27 30 31 32 31 31 32 32 31 31 30 30 28 27 27 27 26 26 25 25 24 24 23 23 23 22 22 21 21 20 20 20 19 19 19 19 18 18 18 18 17 17
25 25 26 28 31 32 31 29 31 31 30 30 30 29 28 26 26 25 25 24 24 24 24 23 23 23 22 21 21 20 20 20 19 19 19 19 19 18 18 18 17 17 17 16
24 25 27 28 30 30 28 28 29 29 29 28 28 27 25 25 24 24 23 23 23 23 23 22 22 22 21 21 20 20 20 19 19 19 19 19 18 18 17 17 17 17 16 16
24 24 25 27 28 27 26 27 27 27 26 25 25 24 24 23 23 23 22 22 22 22 22 21 21 21 20 20 20 19 19 19 19 19 19 18 18 17 17 17 16 16 16 16
24 24 24 24 24 24 25 25 25 25 24 24 23 23 22 22 22 21 21 21 21 21 20 20 20 19 19 19 19 19 19 18 18 18 18 17 17 17 16 16 16 16 15 15
23 23 23 23 23 23 23 23 24 24 23 23 22 22 21 21 21 20 20 20 19 19 19 19 19 19 18 18 18 18 18 18 17 17 17 16 16 16 16 16 16 15 15 15
21 22 22 22 22 22 22 22 22 22 22 22 21 21 20 20 19 19 19 18 18 18 18 17 18 17 17 17 18 17 17 17 17 16 16 16 16 16 16 15 15 15 15 14
20 20 21 21 21 21 21 20 20 20 20 20 20 19 19 19 18 18 18 18 17 17 17 17 17 17 17 17 17 17 17 16 16 16 16 16 15 15 15 15 15 14 14 14
19 20 19 19 20 20 20 20 20 19 19 19 19 18 18 18 18 17 17 17 17 17 17 16 16 16 16 16 16 16 16 16 16 16 15 15 15 15 15 14 14 14 13 13
18 18 19 19 19 19 19 19 19 19 18 18 18 18 17 17 17 17 16 16 16 16 16 16 16 16 16 16 16 16 16 16 15 15 15 15 14 14 14 14 13 13 13 13
17 18 18 18 18 18 18 18 18 18 18 17 17 17 16 16 16 16 16 16 16 16 15 15 15 15 15 15 15 15 15 15 15 15 15 14 14 14 13 13 12 12 12 12
16 17 17 17 17 17 17 17 17 17 17 16 16 16 16 16 16 15 15 15 15 15 15 14 14 14 14 14 14 14 14 14 14 14 14 14 14 13 13 12 12 11 11 11
15 16 16 16 16 16 16 16 16 16 16 16 15 15 15 15 15 15 15 14 14 14 14 14 14 14 14 14 14 14 14 14 14 14 13 13 13 13 12 12 11 11 11 11
15 15 15 15 16 16 16 16 16 15 15 15 15 15 15 14 14 14 14 14 14 13 13 13 13 13 13 13 13 13 13 13 13 13 13 12 12 12 12 12 11 11 10 10
15 15 15 15 15 15 15 15 15 15 15 14 14 14 14 14 13 13 13 13 13 13 12 13 13 13 13 13 13 13 13 13 13 12 12 12 12 12 11 11 11 11 10 10
14 14 15 15 15 15 15 14 14 14 14 14 14 13 13 13 13 13 13 12 12 12 12 12 12 12 12 12 12 12 12 12 12 12 12 12 11 11 11 11 10 10 10 10
14 14 14 14 14 14 14 14 14 13 13 13 13 13 13 13 13 13 12 12 12 12 12 12 12 12 12 12 12 12 12 12 12 11 11 11 11 11 11 10 10 10 9 9
13 13 13 13 13 13 13 13 13 13 13 13 13 13 13 12 12 12 12 12 11 11 11 11 11 11 11 11 11 11 11 11 11 11 11 10 10 10 10 10 9 9 9 9
12 12 12 12 12 12 12 12 12 12 12 12 12 12 12 12 12 12 11 11 11 11 11 11 11 11 11 11 11 11 11 10 10 10 10 10 10 9 9 9 9 9 8 8
11 11 11 11 11 11 11 11 11 11 11 11 11 11 11 11 11 11 11 11 11 11 10 10 10 10 11 10 10 10 10 10 10 10 9 9 9 9 9 8 8 8 8 8
11 11 11 11 11 11 11 11 11 11 11 11 11 11 11 11 11 11 11 10 10 10 10 10 10 10 10 10 10 10 10 10 9 9 9 9 9 9 8 8 8 8 7 7
10 10 10 10 10 11 11 11 10 11 11 11 11 11 11 10 10 10 10 10 10 10 9 9 10 10 10 10 9 9 9 9 9 9 9 8 8 8 8 7 7 7 7 6
10 10 10 10 10 10 10 10 10 10 10 10 10 10 10 10 10 10 10 9 9 9 9 9 9 9 9 9 9 9 9 9 8 8 8 8 8 7 7 7 6 6 6 6
Wind_Speed
20 20 18 16 17 19 19 18 17 14 13 7 6 6 5 6 6 6 7 7 7 8 8 9 9 9 8 9 9 9 10 9 8 7 6 5 4 4 3 3 3 1 1 1
19 21 21 20 19 19 19 18 19 16 11 6 4 5 5 4 5 6 6 6 6 7 8 9 9 9 8 8 8 8 9 8 8 7 6 5 5 4 3 2 1 1 1 0
17 19 21 24 21 19 18 18 17 16 10 5 3 4 5 5 3 4 5 5 4 5 6 6 8 9 8 7 8 8 8 7 8 7 7 6 5 4 4 3 2 2 2 1
15 17 22 19 18 18 17 15 14 10 5 2 2 5 6 5 3 2 3 3 3 3 4 4 5 8 8 8 8 8 8 7 7 6 6 5 5 4 3 3 3 2 2 2
13 18 20 19 16 16 14 12 9 6 4 3 3 4 6 4 3 3 3 3 2 2 3 4 3 5 7 8 8 8 7 6 6 6 6 5 4 4 3 3 3 3 2 2
14 17 19 14 12 11 12 11 5 3 2 3 2 3 3 5 5 5 4 3 3 2 3 4 3 5 6 7 6 6 6 5 5 5 5 4 4 3 3 2 3 3 2 2
18 19 17 10 9 10 12 6 1 2 1 1 1 3 5 6 6 6 5 3 4 4 3 4 4 4 5 5 5 5 5 5 4 4 4 4 3 3 2 2 2 2 1 2
16 19 15 6 6 4 3 4 4 4 5 5 6 7 6 6 6 5 5 4 4 4 5 5 5 4 5 4 4 5 5 5 4 4 3 4 4 3 2 1 2 2 2 2
9 8 3 6 6 5 5 5 5 5 6 6 6 5 5 5 5 4 5 4 5 6 6 6 6 6 5 4 4 4 5 5 4 3 3 3 3 3 2 2 2 1 1 1
4 2 0 2 3 4 5 5 5 4 4 4 4 4 4 4 4 4 5 5 5 6 6 6 6 5 5 5 4 4 4 4 4 4 3 3 1 2 1 1 1 0 0 0
5 3 1 0 2 3 4 5 5 5 5 5 5 5 5 5 4 4 4 5 5 5 5 6 5 5 5 4 4 3 3 3 3 4 4 3 4 3 2 3 1 1 1 1
4 2 2 1 1 1 2 3 4 4 4 5 5 4 4 3 3 4 5 5 4 4 5 5 5 5 4 4 3 3 2 2 2 2 3 4 5 4 8 5 6 7 6 3
3 1 1 1 1 1 1 1 2 2 3 4 4 4 3 2 3 4 5 5 4 4 5 5 5 4 3 3 2 2 2 1 1 1 2 3 4 4 3 3 4 6 6 5
5 2 1 0 1 2 1 2 2 2 2 3 3 3 3 2 2 4 4 4 4 4 4 5 5 4 2 2 1 1 1 2 1 1 1 2 2 2 3 3 3 2 2 2
5 3 1 1 2 3 2 1 0 0 1 2 2 2 3 2 1 3 3 3 3 4 4 4 4 3 2 1 1 1 1 1 1 1 1 1 2 1 1 2 2 3 3 2
5 4 3 2 1 2 2 2 1 1 1 2 2 2 2 1 2 2 3 3 3 3 3 3 2 2 1 1 0 1 1 1 1 1 0 1 1 1 2 2 2 2 2 2
5 4 3 3 2 2 2 2 1 2 0 1 1 1 1 1 1 1 2 2 3 3 2 2 2 1 1 1 1 1 1 2 2 1 1 1 1 1 2 2 2 2 2 3
3 2 3 3 2 3 3 2 2 1 0 0 0 0 0 0 1 1 1 1 2 2 2 2 2 1 1 1 1 1 1 2 2 1 1 1 1 1 2 2 2 3 3 2
3 3 3 3 3 3 4 3 2 1 1 1 1 1 1 1 2 1 1 0 1 2 2 3 1 0 1 1 2 1 1 1 2 2 1 2 1 1 2 2 2 2 3 3
3 4 4 3 3 3 4 4 3 2 1 1 0 0 0 1 2 1 0 1 2 2 2 2 0 0 1 1 2 1 0 1 2 2 2 2 2 2 2 3 3 3 3 2
3 3 3 2 3 3 4 4 3 3 2 2 2 1 1 1 2 2 2 2 3 3 2 2 1 1 2 2 1 1 3 3 3 3 3 3 3 4 4 4 4 3 3 3
3 3 3 3 3 3 3 3 3 3 3 3 3 2 2 2 3 3 3 2 2 2 1 1 1 3 3 2 2 3 4 4 4 3 3 3 3 3 4 4 4 3 3 3
3 3 3 3 3 3 4 3 3 3 2 2 2 2 2 1 2 3 2 2 3 3 2 3 3 4 3 1 2 3 4 4 3 3 3 3 3 3 3 3 3 3 3 2
3 3 3 3 2 2 2 2 2 2 2 1 1 1 2 2 2 2 4 5 5 4 3 4 4 3 2 1 2 3 4 4 3 3 2 3 3 3 3 3 3 3 3 3
3 3 3 3 2 2 1 1 1 1 1 1 1 1 2 2 3 3 5 6 6 5 4 4 3 1 1 1 2 3 3 4 3 3 3 3 3 4 4 3 4 4 4 4
2 2 1 2 2 2 1 0 0 1 1 2 1 1 2 3 5 5 5 6 6 4 4 3 3 2 1 2 3 3 3 4 4 4 4 4 4 4 4 3 4 4 3 4
1 1 0 1 1 1 1 0 1 1 1 2 2 2 3 4 4 5 5 5 4 4 3 3 3 2 2 2 3 3 3 3 4 4 4 4 4 4 4 4 4 4 4 5
Wind_Direction
261 265 259 248 236 235 237 242 250 251 240 211 171 171 159 150 148 154 154 156 157 152 152 157 159 161 167 171 167 166 164 169 170 173 176 177 174 176 178 189 211 211 235 287
258 260 261 261 251 240 241 241 245 254 258 241 155 151 137 139 150 147 154 160 160 154 157 164 166 169 170 170 163 157 164 169 166 171 171 172 172 171 177 179 177 165 185 141
257 255 258 253 251 249 242 243 246 249 253 224 177 136 134 130 146 146 154 151 156 160 164 167 172 170 172 169 161 162 168 170 169 171 171 173 176 173 176 172 171 164 163 148
254 257 250 251 253 256 254 250 246 248 249 207 129 112 105 102 117 109 125 137 143 164 159 168 177 172 169 166 163 168 173 175 170 170 167 165 167 171 171 173 179 166 175 176
250 248 249 254 251 251 253 253 251 242 227 191 206 150 117 101 105 84 82 90 100 140 152 149 159 158 155 163 165 168 169 170 168 166 165 164 170 175 175 182 180 176 169 170
246 250 249 249 255 261 256 240 252 258 211 201 211 216 130 91 90 87 62 64 74 74 87 115 116 136 148 156 156 161 159 157 149 147 151 160 172 179 176 180 182 190 170 159
241 249 252 274 281 267 246 248 277 289 24 128 33 57 73 78 79 87 84 70 77 75 72 87 98 117 140 146 149 144 134 135 141 148 158 160 158 164 170 183 183 190 161 142
238 244 247 304 291 282 346 20 31 41 59 66 79 90 86 81 80 79 82 79 88 84 77 80 82 98 115 125 127 129 131 133 141 147 159 148 147 157 160 166 183 190 183 175
242 246 345 11 17 32 36 42 42 49 65 81 87 93 92 86 83 77 73 74 81 90 85 81 80 87 97 102 110 121 124 129 130 129 119 130 156 158 164 174 210 214 201 204
269 238 19 39 21 24 30 38 41 51 70 88 94 84 78 75 77 77 75 74 77 92 94 87 83 87 96 92 93 112 129 134 138 141 135 112 96 96 98 56 337 320 51 360
257 250 238 279 30 33 28 32 37 36 49 69 88 78 70 69 65 75 87 87 84 93 101 97 92 91 90 94 104 108 118 137 159 154 142 128 98 57 74 69 51 356 15 29
254 275 270 222 174 148 64 43 37 41 46 57 74 78 72 78 79 73 79 85 90 94 103 104 100 93 89 95 108 119 137 151 174 157 145 145 128 98 53 69 67 58 50 54
313 274 271 305 2 32 73 52 49 53 70 65 61 66 71 81 87 87 85 84 88 99 103 102 98 91 84 96 111 133 151 148 251 153 160 163 150 150 136 85 73 63 55 62
330 335 218 169 5 358 10 30 33 30 66 73 73 70 64 65 86 96 93 98 97 94 103 107 107 102 95 103 125 173 182 154 187 181 189 187 169 171 170 160 148 123 87 77
322 323 344 15 4 352 352 330 257 116 80 75 73 83 72 51 78 100 102 103 103 103 97 98 100 97 96 125 141 183 208 158 193 184 187 155 152 161 138 128 125 120 106 81
314 335 351 327 320 316 315 304 259 205 99 81 72 74 83 69 69 83 100 114 117 104 98 90 80 66 56 68 122 185 135 111 197 240 210 142 146 136 121 119 113 118 125 117
301 307 326 308 317 324 321 316 280 254 228 100 98 76 95 96 77 78 118 120 119 114 114 104 86 65 35 5 282 239 182 162 187 209 143 100 124 122 124 123 116 119 111 113
276 298 310 311 315 306 303 291 281 275 282 125 109 24 339 70 95 44 22 107 117 106 84 81 77 69 48 37 328 311 209 179 182 135 115 109 106 107 108 114 116 111 111 121
296 304 303 311 308 306 311 315 314 332 22 357 47 36 33 54 70 27 314 142 110 120 100 84 53 280 73 50 322 253 235 172 134 116 116 118 148 120 109 110 110 111 117 121
300 305 293 292 308 313 314 319 321 323 337 307 253 239 251 107 108 109 102 99 89 75 89 91 120 353 61 53 314 277 125 110 112 119 121 128 121 103 101 103 101 96 95 106
303 308 310 326 333 327 324 321 316 310 308 295 268 239 193 165 161 159 156 150 112 92 94 100 54 10 29 14 259 53 66 70 77 87 88 80 78 81 77 78 78 79 74 68
328 322 330 338 337 330 324 315 301 288 285 282 270 256 212 188 177 151 131 124 130 115 139 125 72 44 20 2 78 78 75 76 77 75 75 73 72 72 69 71 78 78 72 65
319 323 331 331 328 324 323 319 303 292 288 278 269 253 208 171 160 151 150 138 129 115 98 66 59 61 35 34 76 89 88 82 78 78 80 84 88 90 86 81 79 79 75 68
313 319 318 310 300 302 311 319 317 310 288 274 244 183 172 157 148 143 130 114 106 114 100 90 87 65 16 17 68 90 99 97 97 101 102 105 107 106 98 91 84 76 70 60
309 313 312 308 304 306 316 284 263 225 195 172 166 159 168 148 139 123 120 123 130 133 124 124 127 104 341 27 75 80 90 94 94 91 80 81 87 87 82 73 68 65 60 55
306 294 300 298 305 297 287 256 175 161 161 156 135 109 107 112 120 123 128 136 140 138 135 141 153 192 172 92 89 86 86 96 97 88 75 65 66 71 72 67 68 61 58 54
263 251 256 285 317 347 351 115 145 126 129 133 133 133 134 131 131 139 142 142 147 150 145 153 159 153 125 105 91 87 86 82 81 81 81 76 69 65 66 65 60 58 50 48
Height
1472 1464 1461 1462 1464 1464 1468 1471 1477 1473 1471 1469 1468 1471 1475 1478 1481 1485 1489 1493 1496 1500 1503 1506 1509 1512 1515 1518 1521 1522 1524 1526 1527 1529 1530 1531 1531 1532 1532 1532 1532 1532 1532 1531
1478 1468 1464 1464 1460 1460 1463 1463 1466 1468 1468 1461 1465 1471 1474 1478 1481 1485 1488 1492 1495 1498 1501 1504 1506 1509 1512 1515 1517 1520 1521 1523 1525 1526 1528 1528 1529 1529 1530 1530 1530 1530 1530 1529
1485 1473 1470 1472 1461 1458 1459 1458 1461 1467 1464 1462 1466 1470 1474 1478 1482 1484 1488 1491 1494 1496 1499 1502 1504 1506 1509 1512 1514 1516 1519 1521 1522 1523 1525 1525 1526 1527 1527 1527 1527 1527 1527 1527
1486 1484 1492 1467 1452 1451 1454 1454 1454 1457 1460 1463 1467 1472 1475 1479 1483 1485 1488 1490 1492 1495 1497 1500 1502 1504 1506 1509 1511 1513 1515 1517 1519 1521 1521 1523 1524 1524 1525 1525 1525 1524 1525 1524
1487 1487 1479 1462 1453 1452 1455 1457 1454 1457 1460 1465 1468 1472 1476 1479 1482 1485 1488 1489 1491 1493 1495 1497 1499 1501 1503 1505 1508 1510 1512 1514 1516 1517 1519 1520 1521 1522 1522 1522 1522 1522 1522 1522
1486 1490 1485 1465 1452 1451 1454 1462 1458 1459 1462 1466 1468 1473 1478 1481 1482 1485 1487 1488 1490 1492 1493 1495 1497 1498 1500 1503 1505 1507 1509 1511 1513 1514 1515 1516 1517 1518 1519 1520 1520 1520 1519 1519
1485 1484 1471 1459 1453 1454 1467 1467 1461 1462 1464 1467 1471 1475 1480 1481 1483 1484 1486 1488 1489 1490 1492 1493 1495 1497 1499 1501 1503 1505 1506 1508 1510 1511 1512 1513 1514 1516 1516 1517 1517 1517 1517 1517
1480 1483 1476 1461 1458 1462 1466 1463 1463 1465 1468 1471 1474 1476 1479 1482 1483 1485 1485 1487 1488 1490 1491 1492 1494 1496 1497 1499 1501 1503 1504 1507 1508 1509 1510 1511 1511 1512 1514 1514 1515 1515 1515 1514
1471 1473 1470 1466 1466 1467 1467 1467 1468 1469 1471 1474 1476 1478 1481 1482 1484 1486 1487 1487 1488 1489 1490 1491 1493 1494 1496 1498 1499 1501 1503 1504 1506 1508 1508 1509 1510 1510 1512 1512 1513 1512 1512 1512
1468 1468 1468 1469 1470 1470 1471 1471 1472 1472 1474 1476 1478 1479 1481 1483 1484 1486 1487 1487 1488 1488 1489 1490 1492 1493 1495 1497 1498 1499 1502 1504 1505 1506 1507 1508 1509 1509 1510 1510 1510 1510 1510 1510
1469 1469 1470 1470 1471 1473 1474 1474 1474 1475 1476 1478 1479 1481 1482 1483 1485 1486 1487 1487 1488 1488 1489 1490 1492 1493 1494 1496 1497 1498 1500 1502 1503 1504 1505 1506 1507 1507 1508 1508 1508 1509 1508 1508
1470 1470 1470 1471 1473 1474 1475 1476 1477 1477 1478 1479 1480 1481 1483 1485 1485 1486 1487 1487 1488 1489 1489 1490 1492 1492 1493 1495 1496 1497 1498 1500 1502 1503 1503 1504 1504 1505 1505 1505 1505 1506 1506 1506
1470 1470 1471 1472 1473 1474 1475 1476 1477 1478 1478 1480 1481 1482 1484 1485 1485 1486 1487 1488 1488 1489 1489 1490 1491 1492 1493 1494 1495 1496 1497 1499 1500 1501 1502 1502 1502 1502 1503 1503 1503 1503 1503 1503
1472 1471 1471 1471 1473 1475 1475 1476 1477 1478 1478 1480 1482 1483 1484 1485 1485 1486 1487 1487 1488 1488 1489 1490 1491 1492 1492 1493 1494 1495 1496 1498 1499 1499 1500 1500 1500 1500 1501 1500 1500 1500 1500 1500
1473 1472 1472 1472 1474 1475 1475 1476 1478 1478 1479 1481 1481 1482 1483 1483 1484 1485 1486 1487 1487 1488 1488 1489 1490 1491 1491 1492 1493 1494 1495 1496 1497 1497 1497 1497 1498 1498 1499 1499 1498 1498 1498 1498
1474 1472 1472 1473 1474 1475 1476 1477 1477 1478 1480 1480 1481 1482 1483 1484 1484 1484 1485 1486 1487 1487 1488 1488 1488 1489 1490 1491 1492 1492 1493 1494 1494 1495 1495 1496 1496 1496 1496 1496 1496 1496 1496 1496
1475 1473 1474 1475 1475 1476 1477 1477 1478 1479 1479 1479 1480 1481 1482 1482 1483 1484 1485 1485 1486 1487 1487 1487 1487 1488 1489 1489 1490 1491 1492 1492 1493 1493 1494 1494 1494 1494 1495 1495 1495 1495 1495 1495
1474 1474 1474 1475 1475 1477 1477 1477 1477 1477 1477 1478 1479 1480 1481 1481 1482 1483 1483 1484 1485 1486 1486 1486 1486 1487 1487 1487 1488 1489 1490 1491 1491 1491 1492 1492 1493 1493 1493 1493 1494 1494 1493 1494
1474 1474 1475 1475 1476 1476 1476 1476 1476 1476 1477 1477 1478 1479 1480 1480 1481 1482 1482 1483 1484 1485 1485 1485 1486 1486 1486 1486 1487 1487 1488 1489 1489 1490 1490 1491 1491 1492 1492 1492 1493 1493 1493 1493
1474 1475 1475 1475 1475 1475 1475 1475 1475 1475 1476 1477 1477 1478 1479 1480 1480 1480 1481 1482 1483 1483 1484 1484 1484 1484 1485 1485 1486 1486 1487 1487 1488 1489 1489 1490 1490 1490 1491 1491 1492 1492 1492 1492
1474 1475 1475 1474 1474 1474 1474 1474 1474 1475 1475 1476 1476 1477 1478 1478 1478 1479 1479 1481 1482 1482 1483 1483 1483 1483 1484 1484 1485 1485 1486 1486 1487 1487 1488 1489 1489 1489 1490 1490 1491 1491 1491 1492
1474 1474 1474 1474 1474 1474 1474 1474 1474 1474 1474 1474 1475 1475 1476 1476 1477 1478 1479 1479 1480 1481 1481 1482 1483 1483 1483 1484 1484 1484 1485 1485 1486 1487 1487 1488 1488 1489 1489 1490 1490 1491 1491 1491
1474 1474 1474 1473 1473 1473 1473 1473 1472 1472 1472 1472 1473 1473 1474 1475 1476 1477 1477 1478 1479 1479 1480 1481 1482 1482 1483 1484 1484 1484 1485 1485 1486 1486 1487 1487 1488 1489 1490 1490 1490 1491 1491 1491
1473 1473 1473 1472 1472 1472 1471 1471 1471 1470 1470 1471 1471 1472 1472 1473 1474 1476 1476 1477 1477 1479 1480 1480 1481 1482 1483 1483 1484 1485 1485 1486 1486 1487 1488 1488 1489 1489 1490 1490 1490 1490 1490 1490
1472 1472 1471 1471 1471 1470 1470 1470 1469 1469 1469 1469 1470 1470 1471 1473 1474 1474 1475 1476 1477 1478 1479 1480 1481 1482 1483 1484 1485 1485 1486 1486 1487 1487 1488 1489 1489 1489 1490 1490 1490 1490 1489 1489
1471 1470 1470 1470 1470 1469 1469 1469 1469 1468 1469 1469 1470 1470 1471 1472 1473 1474 1475 1476 1477 1478 1479 1480 1481 1482 1483 1484 1485 1485 1486 1487 1487 1487 1488 1488 1488 1488 1489 1489 1489 1489 1489 1488
1470 1469 1469 1469 1469 1469 1469 1469 1469 1469 1469 1469 1470 1471 1471 1472 1473 1474 1475 1476 1478 1479 1480 1481 1482 1483 1484 1484 1485 1486 1486 1487 1487 1487 1487 1488 1488 1488 1489 1489 1489 1488 1488 1487